Weather History for Punta Gorda, FL

Change the Weather History Date:

Friday, March 21, 2014

  Actual Average Record
Temperature  
Mean Temperature 74 °F -  
Max Temperature 88 °F 78 °F 91 °F (2012)
Min Temperature 63 °F 56 °F 52 °F (2008)
Cooling Degree Days 10    
Growing Degree Days 24 (Base 50)    
Moisture  
Dew Point 62 °F    
Average Humidity 70    
Maximum Humidity 87    
Minimum Humidity 43    
Precipitation  
Precipitation 0.00 in - - ()
Sea Level Pressure  
Sea Level Pressure 30.05 in    
Wind  
Wind Speed 10 mph (ENE)    
Max Wind Speed 15 mph    
Max Gust Speed 20 mph    
Visibility 10 miles    
Events      
Averages and records for this station are not official NWS values.
T = Trace of Precipitation, MM = Missing Value Source: NWS Daily Summary

Daily Weather History Graph

Daily Weather History Graph

Search for Another Location

Airport:

Trip Planner

Search our weather history database for the weather conditions in past years. The results will help you decide how hot, cold, wet, or windy it might be!

Date:

Astronomy

Mar. 21, 2014 Rise Set
Actual Time 7:30 AM EDT 7:39 PM EDT
Civil Twilight 7:07 AM EDT 8:02 PM EDT
Nautical Twilight 6:40 AM EDT 8:30 PM EDT
Astronomical Twilight 6:13 AM EDT 8:57 PM EDT
Moon No Moon Rise 10:46 AM EDT (3/21)
Length of Visible Light 12h 55m
Length of Day
12h 08m
Waning Gibbous, 75% of the Moon is Illuminated
Mar 21
Waning Gibbous
Mar 23
Last Quarter
Mar 30
New
Apr 7
First Quarter
Apr 15
Full

Hourly Weather History & Observations

Time (EDT) Temp. Heat Index Dew Point Humidity Pressure Visibility Wind Dir Wind Speed Gust Speed Precip Events Conditions
12:06 AM 64.9 °F - 59.0 °F 81% 30.06 in 10.0 mi NNW 12.7 mph - N/A   Mostly Cloudy
12:53 AM 66.0 °F - 59.0 °F 78% 30.07 in 10.0 mi North 12.7 mph - N/A   Overcast
1:53 AM 66.0 °F - 57.9 °F 75% 30.06 in 10.0 mi North 9.2 mph - N/A   Overcast
2:53 AM 66.0 °F - 57.9 °F 75% 30.05 in 10.0 mi North 9.2 mph - N/A   Overcast
3:53 AM 66.0 °F - 59.0 °F 78% 30.03 in 10.0 mi North 6.9 mph - N/A   Overcast
4:53 AM 64.9 °F - 57.9 °F 78% 30.02 in 10.0 mi North 6.9 mph - N/A   Overcast
5:53 AM 64.0 °F - 59.0 °F 84% 30.03 in 10.0 mi NNE 5.8 mph - N/A   Mostly Cloudy
6:53 AM 64.9 °F - 59.0 °F 81% 30.04 in 10.0 mi North 6.9 mph - N/A   Mostly Cloudy
7:04 AM 64.0 °F - 59.0 °F 84% 30.04 in 10.0 mi NNE 5.8 mph - N/A   Scattered Clouds
7:53 AM 63.0 °F - 59.0 °F 87% 30.05 in 6.0 mi NNE 4.6 mph - N/A   Clear
8:38 AM 64.9 °F - 61.0 °F 87% 30.06 in 8.0 mi NNE 6.9 mph - N/A   Mostly Cloudy
8:53 AM 68.0 °F - 62.1 °F 81% 30.06 in 10.0 mi NE 9.2 mph - N/A   Mostly Cloudy
9:34 AM 73.0 °F - 64.0 °F 73% 30.07 in 10.0 mi NE 10.4 mph - N/A   Partly Cloudy
9:53 AM 73.9 °F - 64.0 °F 71% 30.08 in 10.0 mi ENE 11.5 mph - N/A   Clear
10:53 AM 77.0 °F - 66.0 °F 69% 30.09 in 10.0 mi ENE 12.7 mph - N/A   Mostly Cloudy
11:30 AM 78.1 °F - 66.0 °F 66% 30.09 in 10.0 mi NE 11.5 mph 19.6 mph N/A   Mostly Cloudy
11:53 AM 81.0 °F 82.7 °F 64.9 °F 58% 30.09 in 10.0 mi ENE 12.7 mph - N/A   Mostly Cloudy
12:53 PM 84.0 °F 85.4 °F 64.0 °F 51% 30.07 in 10.0 mi East 12.7 mph - N/A   Mostly Cloudy
1:53 PM 84.9 °F 85.4 °F 62.1 °F 46% 30.05 in 10.0 mi East 12.7 mph - N/A   Mostly Cloudy
2:53 PM 86.0 °F 86.1 °F 61.0 °F 43% 30.03 in 10.0 mi East 11.5 mph - N/A   Mostly Cloudy
3:53 PM 86.0 °F 86.3 °F 62.1 °F 44% 30.01 in 10.0 mi East 10.4 mph - N/A   Mostly Cloudy
4:53 PM 84.9 °F 84.8 °F 60.1 °F 43% 30.00 in 10.0 mi ESE 10.4 mph - N/A   Mostly Cloudy
5:53 PM 82.9 °F 84.4 °F 64.0 °F 53% 30.01 in 10.0 mi ESE 11.5 mph - N/A   Mostly Cloudy
6:53 PM 79.0 °F - 64.0 °F 60% 30.02 in 10.0 mi East 13.8 mph - N/A   Clear
7:53 PM 77.0 °F - 64.0 °F 64% 30.04 in 10.0 mi ESE 6.9 mph - N/A   Overcast
8:53 PM 75.0 °F - 64.0 °F 69% 30.06 in 10.0 mi ESE 8.1 mph - 0.00 in   Overcast
9:04 PM 75.0 °F - 64.0 °F 69% 30.05 in 10.0 mi ESE 9.2 mph - N/A   Overcast
9:18 PM 75.0 °F - 64.0 °F 69% 30.05 in 10.0 mi East 15.0 mph - N/A   Mostly Cloudy
9:53 PM 73.0 °F - 64.0 °F 73% 30.06 in 10.0 mi East 6.9 mph - N/A   Mostly Cloudy
10:23 PM 72.0 °F - 64.0 °F 76% 30.07 in 10.0 mi East 4.6 mph - N/A   Mostly Cloudy
10:40 PM 71.1 °F - 64.0 °F 78% 30.07 in 10.0 mi East 4.6 mph - N/A   Scattered Clouds
10:53 PM 69.1 °F - 63.0 °F 81% 30.07 in 10.0 mi East 4.6 mph - N/A   Partly Cloudy
11:53 PM 69.1 °F - 63.0 °F 81% 30.08 in 10.0 mi Calm Calm - N/A   Partly Cloudy